Theta_e
332 336 340 329 309 309 301 304 313 307 308 313 313 311 312 325 319 314 343 344 344 344 353 359 361 361 360 358 357 355 355 357 357 356 352 350 349 349 350 351 354 355 355 356 356 356 356 355 355
331 337 334 321 304 296 296 306 304 307 310 311 313 320 322 322 331 335 339 346 344 345 353 358 362 362 361 357 357 356 354 357 358 356 352 350 349 348 350 350 353 353 355 355 355 355 355 355 354
330 331 322 312 302 295 297 307 305 307 309 315 315 327 328 326 333 336 339 345 343 347 354 358 361 361 362 358 356 356 355 356 357 356 352 350 349 348 348 352 352 354 354 353 353 353 353 354 352
327 324 317 308 300 306 306 308 304 305 312 315 315 315 330 334 331 336 343 346 343 349 356 360 360 358 359 358 356 357 355 354 357 357 352 349 348 348 348 350 352 353 353 352 352 352 352 352 351
319 312 304 300 300 307 308 307 303 302 308 309 316 314 323 332 336 341 346 346 344 349 355 357 358 358 357 357 356 356 355 355 355 356 355 349 347 347 347 348 351 351 351 351 351 351 352 351 351
311 307 295 292 295 302 305 305 303 302 304 307 312 316 320 335 334 338 345 348 347 348 354 357 358 359 357 357 357 356 355 355 356 355 354 351 347 347 346 348 348 348 351 350 349 350 350 350 349
307 301 294 294 296 300 302 304 303 303 303 304 317 313 316 328 333 339 341 350 350 350 352 350 354 355 356 358 356 356 356 354 355 356 355 353 347 346 346 347 347 348 349 348 348 348 348 349 348
310 305 299 299 296 296 303 304 305 304 303 308 319 304 311 326 335 339 342 343 350 347 345 340 342 344 348 352 354 355 356 355 355 354 354 351 349 346 347 348 348 347 348 347 346 347 346 346 345
310 300 296 297 296 299 302 302 306 307 304 306 309 314 320 330 334 335 337 338 342 339 339 339 338 336 338 340 343 351 353 355 354 353 351 349 347 343 343 346 349 348 347 346 346 345 344 343 341
304 297 297 303 301 300 302 303 304 304 304 305 306 309 311 327 326 325 331 333 335 336 336 338 339 338 337 335 334 335 336 340 347 349 347 346 345 342 338 344 348 348 346 345 344 343 339 337 336
302 297 300 303 305 303 302 303 305 303 302 303 302 305 308 310 311 313 317 324 332 338 339 335 338 339 339 340 337 332 336 335 340 344 344 345 343 341 338 339 345 344 345 341 339 334 332 332 332
298 301 301 303 304 304 303 305 303 304 304 306 307 307 308 309 311 311 313 315 320 329 336 340 338 335 336 338 336 334 330 339 339 341 343 341 341 339 337 335 339 339 339 335 331 329 330 330 331
299 301 303 304 304 304 305 303 304 303 305 308 308 308 308 309 311 312 313 315 316 322 329 336 338 333 332 331 333 333 333 334 338 339 340 340 340 337 333 329 333 334 335 331 327 327 328 328 329
302 302 303 304 304 304 302 303 304 303 306 306 306 307 308 309 311 312 313 313 314 315 319 328 331 331 333 334 336 337 337 336 337 337 340 340 341 336 331 327 330 330 332 327 326 326 326 327 328
303 300 299 300 301 303 304 299 300 305 306 304 304 307 309 310 311 311 313 313 314 315 317 322 328 331 335 337 336 336 329 339 336 337 339 338 337 335 329 326 327 327 329 325 325 325 326 326 326
296 296 293 298 300 303 302 296 301 305 304 303 304 306 308 309 310 311 313 313 314 315 315 322 328 331 333 333 333 335 330 331 336 337 336 336 335 333 327 324 325 322 322 324 324 324 324 324 324
293 290 291 294 299 300 300 297 300 304 304 303 304 306 307 308 310 311 312 313 314 315 316 319 327 330 332 332 331 334 333 330 334 335 335 333 332 330 325 323 321 318 320 323 323 323 323 322 322
288 289 290 291 296 299 298 298 300 303 303 302 303 306 306 307 308 311 313 314 315 316 317 319 326 330 333 332 332 331 332 332 335 333 334 331 332 328 324 321 316 315 319 321 322 321 323 322 321
292 291 290 292 296 298 297 297 300 302 302 301 304 305 305 306 310 313 314 315 315 317 319 327 325 330 331 329 327 326 325 330 333 331 331 331 331 327 321 319 314 315 318 320 322 320 319 317 317
292 290 290 293 296 298 296 296 298 301 301 303 303 304 305 307 310 311 313 314 315 316 321 328 327 330 332 331 330 329 328 328 327 327 328 329 329 322 319 315 312 312 316 319 318 319 318 315 318
291 290 289 291 294 296 295 294 294 299 300 302 305 305 307 306 308 310 313 315 316 317 323 327 328 329 332 331 330 326 325 323 320 319 318 322 326 325 316 314 311 313 316 317 318 319 318 314 313
288 293 293 292 291 288 294 288 292 296 297 300 303 305 306 307 310 312 313 317 318 322 325 327 326 330 332 333 330 326 325 320 319 318 316 318 319 318 317 309 310 308 313 316 317 318 318 318 313
291 296 294 293 291 291 291 289 292 294 293 298 302 305 306 308 309 313 314 314 318 320 321 323 324 325 327 330 328 328 323 320 320 318 316 317 317 316 314 309 307 307 311 314 316 317 316 318 316
296 295 292 292 292 287 289 289 290 292 295 297 302 305 306 308 310 313 316 318 319 320 319 319 321 322 323 324 325 323 321 318 316 315 316 315 314 314 313 312 310 308 310 311 313 315 314 315 315
294 291 286 284 286 285 289 288 292 293 299 300 301 304 306 308 310 313 315 315 319 319 318 318 319 318 319 318 319 319 318 318 317 315 314 311 311 312 311 311 310 311 312 311 311 312 312 314 313
291 291 285 279 280 283 287 286 291 297 301 301 303 305 306 307 309 311 314 316 317 318 318 318 318 317 318 317 316 316 317 315 314 314 312 311 310 311 312 311 310 310 311 312 313 313 312 313 310
291 289 291 284 283 284 286 290 293 299 299 300 303 304 304 306 307 308 310 314 315 315 315 316 316 316 317 317 316 315 315 314 312 313 312 310 311 312 311 310 310 310 310 309 312 311 309 309 308
293 294 288 287 281 280 282 284 288 290 293 299 301 302 304 306 305 307 308 310 312 313 314 315 315 314 315 316 317 316 314 314 314 314 311 311 311 310 310 309 309 309 309 309 308 307 307 307 306
292 291 288 289 286 283 281 284 291 292 295 299 301 303 304 304 304 305 306 307 309 310 310 311 312 312 313 313 314 315 314 314 313 312 311 310 311 310 309 309 309 309 308 308 308 307 307 307 305
293 291 290 285 283 284 284 286 294 294 298 301 300 303 305 305 303 304 305 305 305 305 305 306 308 308 309 311 310 311 311 313 311 310 309 310 310 310 309 309 308 308 308 308 308 307 306 306 303
Wind_Speed
4 3 2 3 2 2 1 2 2 9 5 3 10 6 5 3 2 3 7 6 3 13 15 17 19 18 16 17 17 16 15 14 15 16 15 15 14 13 13 12 12 13 15 16 16 17 17 18 18
2 0 3 3 3 0 0 3 7 6 9 13 5 0 2 1 2 2 4 1 8 14 14 15 19 19 18 17 17 16 15 14 17 16 15 15 14 13 14 13 13 13 14 16 16 17 17 17 18
2 3 3 3 3 3 3 2 5 9 6 6 4 5 3 3 3 3 8 2 9 14 12 12 18 17 17 19 17 16 16 14 17 17 15 15 13 13 13 13 13 14 16 16 15 16 16 17 19
2 2 4 0 4 3 2 4 3 9 4 6 4 1 0 2 3 6 11 4 11 13 11 11 16 16 16 19 19 17 16 15 15 17 16 15 14 13 13 13 13 15 16 16 16 16 17 17 18
4 3 4 1 2 2 3 3 3 5 3 5 6 6 4 1 7 5 4 5 10 12 9 9 14 14 15 18 18 18 16 15 15 15 17 14 14 13 13 12 15 15 16 17 17 16 18 18 19
4 2 3 2 3 3 4 3 2 2 3 5 3 5 2 2 5 6 5 4 6 11 9 8 13 15 15 17 18 18 17 16 14 16 16 17 15 14 13 13 13 13 16 16 16 16 17 18 18
5 2 3 3 2 2 3 1 1 3 4 3 3 3 3 2 2 3 3 1 6 7 6 4 8 12 14 17 18 18 18 16 14 17 17 16 16 15 14 13 12 13 14 17 16 16 17 18 19
4 3 3 2 3 3 2 3 1 1 2 5 1 1 2 3 1 3 3 2 4 5 6 6 7 8 6 3 15 18 17 17 15 16 17 16 16 15 15 13 14 13 15 18 16 17 16 18 17
2 4 1 3 6 2 1 1 1 1 2 3 1 1 4 4 2 1 1 0 2 5 6 8 9 7 8 8 5 12 14 15 15 12 14 13 10 13 14 11 14 14 18 18 19 17 16 17 16
4 2 6 4 4 3 1 3 2 1 3 2 4 4 9 3 2 3 4 4 3 6 7 8 9 8 10 7 5 4 6 4 2 8 13 10 12 11 12 12 15 18 17 18 18 17 14 10 7
3 3 3 4 7 2 2 3 3 2 1 3 8 10 7 6 6 5 5 6 9 8 8 9 8 9 8 8 5 4 2 1 1 3 7 10 9 9 9 8 9 10 15 10 11 8 6 9 8
1 5 4 3 2 4 4 2 2 1 3 2 2 2 2 6 6 5 5 6 7 10 11 11 10 6 5 4 4 3 6 4 6 0 7 8 6 9 9 7 7 8 8 10 8 6 9 10 10
3 2 4 5 5 5 3 6 4 5 4 2 3 4 6 7 8 6 6 3 7 7 10 11 9 7 5 6 4 6 9 8 10 13 8 7 8 9 7 7 7 7 8 8 8 9 9 10 11
3 3 5 5 2 3 5 3 6 4 4 4 5 6 6 8 9 10 8 10 8 8 9 10 11 7 7 6 6 2 7 10 12 14 12 13 10 10 9 8 8 8 8 8 8 9 9 9 10
0 3 4 3 1 2 4 2 5 3 5 4 3 4 7 8 9 10 11 13 11 11 11 11 10 9 11 11 7 3 5 7 11 12 14 14 13 13 12 9 8 8 9 11 9 9 9 8 8
2 3 2 1 3 1 3 6 3 2 4 1 3 6 9 8 9 10 11 13 13 10 10 11 9 12 10 8 4 3 4 6 4 9 9 12 13 14 11 9 8 8 9 9 9 9 8 8 8
5 1 2 6 2 1 3 5 1 2 3 2 5 9 12 14 12 10 10 12 13 12 10 10 11 12 11 9 5 5 9 7 7 5 6 11 13 14 11 10 8 10 8 9 10 8 10 9 8
3 2 2 4 2 1 3 10 6 6 4 2 7 11 13 13 15 12 12 12 12 11 11 11 10 11 11 8 5 3 1 6 8 7 6 9 9 13 11 9 10 10 9 8 9 11 8 9 9
3 3 4 4 4 3 4 7 10 5 3 3 9 12 14 15 14 13 11 11 9 9 10 11 13 14 10 8 6 2 2 3 7 9 9 10 10 11 12 9 10 9 10 12 13 11 12 7 8
3 2 4 4 3 3 4 12 3 4 3 4 8 14 16 19 18 15 12 9 8 8 8 7 9 12 9 8 5 2 3 4 5 8 7 8 10 8 9 12 10 10 9 12 14 13 10 5 8
4 4 4 5 2 1 5 4 2 2 3 4 9 9 13 15 17 15 13 9 6 6 5 4 4 9 11 11 5 4 3 5 5 6 5 5 8 6 7 10 9 11 10 11 13 12 12 9 5
2 4 3 2 1 3 3 4 2 3 1 5 10 8 12 14 14 12 10 8 8 8 9 8 5 3 7 12 9 9 4 3 3 5 5 6 9 6 6 7 8 8 7 12 12 12 10 11 11
5 2 2 1 3 1 1 2 3 1 3 5 9 11 12 13 13 10 10 11 11 11 10 9 7 6 4 6 7 6 7 7 6 7 10 8 7 7 5 6 7 8 7 8 14 14 11 10 10
6 4 5 3 2 2 2 3 3 3 2 3 6 9 9 12 11 11 11 12 13 12 11 9 10 9 8 7 5 7 11 9 8 8 6 6 5 5 5 4 4 5 7 10 10 12 13 11 10
3 4 2 0 1 3 2 1 6 5 5 4 4 6 9 10 9 9 11 11 11 10 11 10 11 9 8 8 9 7 8 8 8 8 6 8 6 4 6 5 3 2 5 5 8 9 9 10 9
4 5 5 4 3 2 1 6 2 4 6 4 2 4 5 8 8 8 8 8 9 9 9 10 10 9 9 8 9 8 9 6 6 7 6 5 6 5 7 6 6 3 5 6 7 6 5 8 5
4 4 3 7 1 1 2 5 3 6 5 4 5 4 4 6 7 6 7 7 7 8 9 9 9 9 9 9 8 9 9 10 9 10 9 7 7 8 9 8 8 5 6 8 9 7 7 7 6
3 8 4 2 3 3 3 5 4 6 9 8 8 6 1 4 6 5 5 6 6 7 7 8 8 8 8 7 7 8 9 10 9 8 9 8 9 9 8 7 8 7 7 8 8 7 6 6 3
3 2 4 4 2 3 2 5 6 7 10 12 9 8 5 2 3 4 4 5 6 7 7 8 8 8 8 7 6 8 11 12 10 9 8 10 9 9 8 7 7 7 6 6 6 6 5 5 4
3 6 6 4 5 1 1 6 3 5 7 10 10 8 5 3 1 2 2 4 6 6 7 8 8 9 8 8 10 9 9 9 9 10 10 11 9 8 9 9 8 6 5 4 5 4 3 5 5
Wind_Direction
4 5 85 49 53 36 298 44 295 333 325 292 308 259 311 3 315 323 347 194 234 175 164 168 163 160 165 155 147 144 141 140 137 134 125 121 124 126 118 109 97 94 93 91 92 91 92 94 90
8 64 52 88 94 240 155 307 331 301 311 303 300 295 175 69 16 320 318 322 182 170 169 166 165 164 162 159 148 147 145 146 139 136 129 125 124 125 123 119 104 101 97 94 94 94 93 96 94
139 36 73 80 105 212 151 245 312 305 322 357 344 32 0 359 352 336 1 201 163 170 174 169 169 170 159 155 154 151 149 149 146 138 134 128 126 125 126 118 112 108 104 100 97 96 94 91 92
111 51 68 128 191 223 227 304 334 339 347 18 333 58 343 319 296 321 308 200 167 168 170 171 173 172 162 158 159 154 154 153 148 140 140 137 135 127 126 124 113 107 108 103 99 98 98 99 97
39 65 94 100 238 258 257 276 304 355 358 333 342 348 339 346 322 350 3 167 177 174 167 171 184 178 167 162 163 159 158 158 157 152 143 143 139 136 131 129 116 111 114 109 102 100 99 97 97
59 81 104 210 239 247 261 264 263 345 320 331 16 325 2 323 355 357 346 170 187 180 179 188 179 171 176 172 169 166 162 162 170 155 148 145 145 140 137 133 128 128 118 114 108 105 103 102 99
103 93 136 151 244 278 219 329 299 328 309 358 323 317 307 37 34 12 357 129 161 182 170 65 189 178 187 177 176 173 166 168 172 161 156 150 150 145 142 140 139 127 122 116 109 105 108 105 99
107 90 114 204 200 234 246 327 284 269 300 307 256 331 344 29 11 34 48 58 137 116 108 98 86 94 86 197 191 182 173 169 174 168 157 155 148 148 148 147 138 139 133 122 118 110 109 104 100
140 73 171 219 181 228 239 308 255 337 286 323 247 290 347 357 14 20 48 73 138 134 153 146 134 111 100 89 48 202 192 176 172 171 160 154 150 154 151 144 141 131 134 124 118 108 107 104 97
81 122 213 205 204 219 207 214 260 225 329 327 319 5 350 325 343 310 250 241 222 211 192 173 160 159 140 128 142 94 70 31 278 179 170 164 157 151 153 149 142 130 133 122 115 109 102 107 111
136 196 200 244 223 224 243 234 196 223 90 46 293 311 358 28 40 18 333 280 250 228 211 206 184 160 185 168 167 142 81 221 165 177 169 167 155 149 154 153 144 139 134 127 114 120 114 119 119
205 232 194 263 224 163 219 183 198 143 140 170 358 38 358 7 16 10 359 348 292 246 239 214 219 208 187 195 179 168 163 227 127 85 182 171 156 159 155 150 137 135 135 129 126 125 124 119 117
196 264 192 257 277 258 248 230 211 150 151 130 41 23 5 347 345 337 334 324 336 284 264 242 225 213 184 172 184 196 188 199 158 167 215 182 162 157 150 140 140 136 135 131 128 131 128 124 121
201 259 280 289 248 242 192 211 163 180 159 91 39 3 355 344 332 322 329 326 317 300 294 260 229 212 168 171 174 134 215 191 176 160 180 190 170 160 152 148 149 143 140 139 137 136 132 125 125
145 303 324 210 287 279 149 212 225 142 170 114 46 356 339 325 311 300 303 306 305 303 296 276 231 203 178 185 178 123 61 189 184 156 166 185 167 162 152 151 153 147 143 137 131 129 129 124 121
70 63 6 291 334 127 184 265 220 183 185 242 343 330 326 311 305 301 288 296 297 288 281 289 221 190 179 157 159 178 117 87 143 149 159 171 164 158 147 149 150 143 143 143 140 140 133 126 125
13 230 222 312 325 265 192 271 234 185 200 257 334 330 325 321 322 304 299 294 293 289 276 270 226 197 174 146 165 183 149 128 129 131 157 171 160 157 149 154 146 147 149 151 146 144 139 136 126
195 235 246 244 265 261 246 265 247 216 219 313 334 321 317 315 313 320 306 297 295 286 276 256 221 199 171 146 139 127 159 122 151 160 166 164 158 158 149 149 147 150 149 150 151 141 140 139 136
147 181 245 247 264 259 256 273 281 214 207 0 341 323 325 323 322 314 306 303 300 293 280 241 195 194 162 142 152 174 174 142 169 143 157 155 152 153 148 147 147 154 157 159 156 146 142 130 136
165 218 257 286 244 240 295 287 303 178 107 53 333 336 329 327 331 322 321 318 313 309 286 205 178 191 170 148 156 173 120 164 118 114 124 134 144 136 142 148 156 152 148 157 159 153 145 126 167
200 194 205 230 319 238 313 284 69 69 94 324 343 318 340 330 324 330 334 342 350 354 337 127 160 176 175 156 131 91 88 94 82 86 100 99 124 143 133 151 151 163 165 163 167 164 162 154 178
236 194 193 200 30 261 349 292 293 153 271 352 315 2 345 335 338 346 355 21 35 44 57 78 78 122 174 164 167 160 147 106 92 128 108 96 112 113 127 129 153 145 171 165 172 174 172 159 173
214 125 139 145 184 328 249 210 254 178 230 326 331 14 346 345 353 7 33 58 60 56 54 61 80 83 110 140 170 144 113 121 126 141 124 130 129 127 109 150 147 150 172 177 177 177 179 182 173
136 102 57 63 120 230 212 210 260 189 216 301 311 15 343 343 2 18 43 63 63 59 59 65 66 54 64 81 103 127 138 140 146 142 148 126 131 135 134 85 121 148 169 173 185 187 180 173 187
89 84 327 135 217 237 136 234 254 170 193 199 306 23 344 348 5 38 40 52 63 58 68 67 66 65 62 71 80 97 110 127 129 120 122 133 129 117 119 128 111 142 177 156 170 185 182 181 183
173 162 159 208 214 266 309 232 229 160 171 182 269 81 351 352 354 10 36 58 48 54 55 65 73 71 76 87 89 96 96 95 88 102 112 99 103 107 113 107 98 102 152 140 146 149 149 159 132
175 190 134 107 55 279 237 269 194 155 193 189 162 79 15 345 355 355 17 37 66 62 52 60 63 65 73 88 104 96 105 110 108 105 96 99 107 104 98 101 98 115 112 110 122 128 119 121 109
174 146 121 53 162 245 263 270 231 190 183 186 162 148 123 330 341 355 27 31 42 56 64 77 79 67 50 75 101 106 101 102 106 105 105 102 91 87 91 92 101 98 87 87 100 97 88 99 100
146 187 66 114 158 190 275 255 202 171 166 177 168 162 164 175 334 345 13 46 55 54 53 61 65 73 65 42 58 98 115 113 106 107 123 108 108 106 95 85 78 73 72 76 87 92 106 109 122
177 178 158 147 186 89 318 272 140 166 159 159 162 167 162 147 141 106 74 79 80 81 71 64 67 66 65 73 64 52 59 85 111 113 104 111 111 111 121 116 99 85 79 91 110 115 127 153 155